This demonstration page uses our WeatherBlox Daily Observations layout. Learn more.

Left ArrowRight Arrow

40.92945, -100.16068

Hourly Observations for November 1, 2020

Temp ( °F °C ) Dew Point ( °F °C ) Humidity (%) Winds ( mph kmh ) Pressure ( in mb ) Visibility ( mi km ) Precip ( " mm )
12:15 am 00:15 Clear 35 1.5 25 -4.1 67 67 WNW 8 13 30.48 1032 10 16.0934 0 0
12:35 am 00:35 Clear 31 -0.3 24 -4.4 74 74 W 9 15 30.5 1033 10 16.0934 0 0
12:55 am 00:55 Clear 32 0 24 -4.4 73 73 WNW 8 13 30.5 1033 10 16.0934 0 0
1:15 am 01:15 Clear 31 -0.3 24 -4.7 73 73 WNW 7 11 30.49 1033 10 16.0934 0 0
1:35 am 01:35 Clear 29 -1.8 22 -5.6 76 76 WSW 8 13 30.52 1033 10 16.0934 0 0
1:55 am 01:55 Clear 30 -1 23 -4.8 76 76 W 9 15 30.53 1034 10 16.0934 0 0
1:15 am 01:15 Clear 30 -1 23 -4.9 75 75 W 9 15 30.53 1034 10 16.0934 0 0
1:35 am 01:35 Clear 31 -0.6 23 -5.1 72 72 WNW 7 11 30.53 1034 10 16.0934 0 0
1:55 am 01:55 Clear 29 -1.6 22 -5.3 76 76 W 9 15 30.55 1035 10 16.0934 0 0
2:15 am 02:15 Clear 28 -2.2 22 -5.4 79 79 W 9 15 30.56 1035 10 16.0934 0 0
2:35 am 02:35 Clear 27 -2.9 21 -5.9 80 80 NW 7 11 30.59 1036 10 16.0934 0 0
2:55 am 02:55 Clear 26 -3.2 21 -6.3 79 79 WNW 7 11 30.6 1036 10 16.0934 0 0
3:15 am 03:15 Clear 25 -3.8 20 -6.5 82 82 NW 7 11 30.61 1036 10 16.0934 0 0
3:35 am 03:35 Clear 25 -3.8 21 -6.3 83 83 NW 9 15 30.61 1036 10 16.0934 0 0
3:55 am 03:55 Clear 25 -4 20 -6.5 83 83 NW 8 13 30.61 1037 10 16.0934 0 0
4:15 am 04:15 Clear 24 -4.6 20 -6.9 84 84 NW 7 11 30.63 1037 10 16.0934 0 0
4:35 am 04:35 Clear 23 -5.2 19 -7.3 85 85 NNW 7 11 30.61 1037 10 16.0934 0 0
4:55 am 04:55 Clear 22 -5.6 18 -7.7 85 85 N 6 9 30.63 1037 10 16.0934 0 0
5:15 am 05:15 Clear 21 -6 18 -8 86 86 NW 5 7 30.64 1038 10 16.0934 0 0
5:35 am 05:35 Clear 21 -6 18 -8 86 86 WNW 6 9 30.65 1038 10 16.0934 0 0
5:55 am 05:55 Clear 21 -6 18 -8 86 86 WNW 5 7 30.64 1038 10 16.0934 0 0
6:15 am 06:15 Clear 21 -6.1 18 -7.9 87 87 WNW 8 13 30.64 1038 10 16.0934 0 0
6:35 am 06:35 Clear 22 -5.5 19 -7.5 86 86 WNW 8 13 30.65 1038 10 16.0934 0 0
6:55 am 06:55 Clear 21 -6.1 17 -8.1 86 86 WNW 3 6 30.65 1038 10 16.0934 0 0
7:15 am 07:15 Sunny 20 -6.7 17 -8.4 88 88 Calm 30.67 1039 10 16.0934 0 0
7:35 am 07:35 Sunny 21 -5.9 18 -7.8 87 87 W 5 7 30.66 1038 10 16.0934 0 0
7:55 am 07:55 Sunny 24 -4.4 20 -6.4 86 86 WSW 7 11 30.65 1038 10 16.0934 0 0
8:15 am 08:15 Sunny 28 -2.1 24 -4.7 83 83 WNW 5 7 30.65 1038 10 16.0934 0 0
8:35 am 08:35 Sunny 31 -0.4 26 -3.6 79 79 W 5 7 30.64 1038 10 16.0934 0 0
8:55 am 08:55 Sunny 33 0.4 26 -3.1 78 78 W 3 6 30.63 1037 10 16.0934 0 0
9:15 am 09:15 Sunny 35 1.6 27 -2.7 73 73 NW 3 6 30.63 1037 10 16.0934 0 0
9:35 am 09:35 Sunny 37 2.6 26 -3.1 66 66 Calm 30.62 1037 10 16.0934 0 0
9:55 am 09:55 Sunny 39 4.1 26 -3.4 58 58 Calm 30.61 1036 10 16.0934 0 0
10:15 am 10:15 Sunny 42 5.3 24 -4.6 49 49 Calm 30.6 1036 10 16.0934 0 0
10:35 am 10:35 Sunny 43 6.1 22 -5.4 44 44 Calm 30.59 1036 10 16.0934 0 0
10:55 am 10:55 Sunny 44 6.7 20 -6.9 38 38 SSW 5 7 30.57 1035 10 16.0934 0 0
11:15 am 11:15 Sunny 45 7.4 21 -6.1 38 38 S 5 7 30.58 1035 10 16.0934 0 0
11:35 am 11:35 Sunny 47 8.1 18 -7.9 32 32 S 3 6 30.56 1035 10 16.0934 0 0
11:55 am 11:55 Sunny 48 8.8 20 -6.4 34 34 SW 6 9 30.54 1034 10 16.0934 0 0
12:15 pm 12:15 Sunny 49 9.3 18 -7.6 30 30 SSE 6 9 30.54 1034 10 16.0934 0 0
12:35 pm 12:35 Sunny 50 9.8 19 -7.1 30 30 S 5 7 30.51 1033 10 16.0934 0 0
12:55 pm 12:55 Sunny 51 10.5 19 -7.3 28 28 SSE 3 6 30.49 1032 10 16.0934 0 0
1:15 pm 13:15 Sunny 52 11 19 -7.1 28 28 SE 7 11 30.47 1032 10 16.0934 0 0
1:35 pm 13:35 Sunny 52 11.2 18 -8 25 25 SSE 9 15 30.46 1031 10 16.0934 0 0
1:55 pm 13:55 Sunny 53 11.9 18 -7.7 25 25 S 10 17 30.44 1031 10 16.0934 0 0
2:15 pm 14:15 Sunny 54 12 19 -7.4 25 25 S 10 17 30.44 1031 10 16.0934 0 0
2:35 pm 14:35 Sunny 55 12.6 19 -7 25 25 SSW 10 17 30.44 1031 10 16.0934 0 0
2:55 pm 14:55 Sunny 55 12.8 19 -7.1 25 25 S 9 15 30.43 1030 10 16.0934 0 0
3:15 pm 15:15 Sunny 55 12.5 19 -7 25 25 S 13 20 30.43 1030 10 16.0934 0 0
3:35 pm 15:35 Sunny 55 12.7 20 -6.9 25 25 SSW 12 19 30.43 1030 10 16.0934 0 0
3:55 pm 15:55 Sunny 54 12.2 19 -7.2 25 25 S 13 20 30.43 1030 10 16.0934 0 0
4:15 pm 16:15 Sunny 54 12.3 19 -7.2 25 25 S 10 17 30.42 1030 10 16.0934 0 0
4:35 pm 16:35 Sunny 54 12.1 19 -7.1 26 26 S 9 15 30.42 1030 10 16.0934 0 0
4:55 pm 16:55 Sunny 53 11.8 20 -6.5 27 27 S 7 11 30.42 1030 10 16.0934 0 0
5:15 pm 17:15 Sunny 51 10.6 20 -6.4 30 30 S 7 11 30.43 1030 10 16.0934 0 0
5:35 pm 17:35 Clear 49 9.2 20 -6.5 33 33 SSE 7 11 30.44 1031 10 16.0934 0 0
5:55 pm 17:55 Clear 47 8.4 20 -6.6 34 34 SE 6 9 30.45 1031 10 16.0934 0 0
6:15 pm 18:15 Clear 46 7.7 20 -6.5 36 36 SE 7 11 30.44 1031 10 16.0934 0 0
6:35 pm 18:35 Clear 45 7.3 21 -6.3 38 38 SSE 7 11 30.45 1031 10 16.0934 0 0
6:55 pm 18:55 Clear 42 5.4 20 -6.5 42 42 SSE 7 11 30.47 1032 10 16.0934 0 0
7:15 pm 19:15 Clear 40 4.3 20 -6.5 46 46 SSE 7 11 30.49 1032 10 16.0934 0 0
7:35 pm 19:35 Clear 40 4.3 21 -6.2 47 47 S 9 15 30.48 1032 10 16.0934 0 0
7:55 pm 19:55 Clear 39 4 20 -6.5 47 47 SSE 8 13 30.49 1032 10 16.0934 0 0
8:15 pm 20:15 Clear 38 3.1 20 -6.5 50 50 SSE 8 13 30.5 1033 10 16.0934 0 0
8:35 pm 20:35 Clear 37 2.6 20 -6.5 52 52 SSE 7 11 30.5 1033 10 16.0934 0 0
8:55 pm 20:55 Clear 36 2.1 20 -6.6 53 53 SSE 7 11 30.5 1033 10 16.0934 0 0
9:15 pm 21:15 Clear 37 3 21 -6.2 51 51 S 8 13 30.48 1032 10 16.0934 0 0
9:35 pm 21:35 Clear 36 2.1 20 -6.5 53 53 S 3 6 30.49 1032 10 16.0934 0 0
9:55 pm 21:55 Clear 38 3.6 21 -6.3 49 49 S 10 17 30.47 1032 10 16.0934 0 0
10:15 pm 22:15 Clear 40 4.5 20 -6.5 45 45 S 10 17 30.46 1032 10 16.0934 0 0
10:35 pm 22:35 Clear 40 4.6 20 -6.4 45 45 S 9 15 30.46 1032 10 16.0934 0 0
10:55 pm 22:55 Clear 40 4.6 20 -6.5 45 45 S 9 15 30.45 1031 10 16.0934 0 0
11:15 pm 23:15 Clear 41 4.9 20 -6.5 44 44 S 7 11 30.45 1031 10 16.0934 0 0
11:35 pm 23:35 Clear 41 5 20 -6.5 44 44 S 5 7 30.45 1031 10 16.0934 0 0
11:55 pm 23:55 Clear 41 5.2 21 -6.2 44 44 S 9 15 30.44 1031 10 16.0934 0 0

Powered by AerisWeather